Regional Weather Roundup
Issued by NWS New Orleans/Baton Rouge, LA

Home | Current Version | Previous Version | Text Only | Print | Product List | Glossary Off
Versions: 1 2 3 4 5 6 7 8 9 10 11 12 13 14 15 16 17 18 19 20 21 22 23 24 25 26 27 28 29 30 31 32 33 34 35 36 37 38 39 40 41 42 43 44 45 46 47 48 49 50

656
ASUS44 KLIX 010201
RWRLIX
NEW ORLEANS REGIONAL WEATHER ROUNDUP
NATIONAL WEATHER SERVICE NEW ORLEANS LA
900 PM CDT FRI OCT 31 2014

NOTE: "FAIR" INDICATES FEW OR NO CLOUDS BELOW 12,000 FEET WITH NO
      SIGNIFICANT WEATHER AND/OR OBSTRUCTIONS TO VISIBILITY.
      SKY/WX - SKY CONDITION AND SIGNIFICANT WEATHER.
      TMP - AIR TEMPERATURE.     DP    - DEWPOINT TEMPERATURE.
      RH  - RELATIVE HUMIDITY.   PRES  - PRESSURE.
      HI  - HEAT INDEX.          WCI   - WIND CHILL INDEX.

*  THESE STATIONS ARE NOT NWS OR FAA STATIONS AND ARE NOT UNDER
   NWS QUALITY CONTROL.

LAZ038-040-048-061>063-065>067-069-010300-
SOUTHEAST LOUISIANA

CITY           SKY/WX    TMP DP  RH WIND       PRES   REMARKS
N.O. AUDUBON     N/A     67  50  55 MISG        N/A
N.O. INTL ARPT PTCLDY    65  47  52 N20G30    30.14R
N.O. LAKEFRONT CLEAR     66  49  54 N30G37    30.14R
N.O. DOWNTOWN*   N/A     66  43  42 N12G23    30.14R
SLIDELL        CLEAR     62  45  53 N13       30.14R
BATON ROUGE    CLEAR     60  45  57 N6        30.19R
BOOTHVILLE     CLEAR     68  50  52 N17G33    30.08R
BELLE CHASSE   PTCLDY    66  44  45 N13G25    30.12R
BOGALUSA*        N/A     60  43  54 N14G20    30.18R
NEW ROADS*       N/A     58  47  67 N8        30.20R
GONZALES*        N/A     61  47  60 N8        30.17R
HAMMOND*       NOT AVBL
HOUMA*         CLEAR     63  47  57 N14G26    30.13R
PORT FOURCHON* NOT AVBL

$$

MSZ070-080>082-010300-
SOUTHERN MISSISSIPPI

CITY           SKY/WX    TMP DP  RH WIND       PRES   REMARKS
MCCOMB         CLEAR     56  44  64 N8        30.20R
GULFPORT       CLEAR     62  45  53 N25G35    30.10R
BILOXI         CLEAR     63  46  54 N15       30.10R
PASCAGOULA     CLEAR     62  47  57 NW8       30.08R

$$

COASTAL OBSERVATIONS
LAKE AND NEARSHORE STATIONS

STATION/POSITION TIME  TEMP    WIND        PRES    WAVE
                       AIR SEA DIR/SP/G            HT/PER
                 (UTC) (F)     (DEG/KT/KT) (MB)    (FT/S)
PASCAGOULA       0100   65     340/ 13/ 18 1017.1
WAVELAND YACHT   0100   65     350/ 20/ 24 1018.4
GRAND ISLE       0100   69 72  350/ 23/ 27 1019.1
SOUTHWEST PASS   0100   71 77              1018.3
NEW CANAL        0100   67 69  350/ 22/ 29 1020.3
SHELL BEACH      0100   68 66  340/ 24/ 29 1019.2

OFFSHORE STATIONS

STATION/POSITION TIME  TEMP    WIND        PRES    WAVE
                       AIR SEA DIR/SP/G            HT/PER
                 (UTC) (F)     (DEG/KT/KT) (MB)    (FT/S)
64 S DAUPHIN ISL 0131   72 78  340/ 27/ 33 1017.0    5/ 5

$$




USA.gov is the U.S. government's official web portal to all federal, state and local government web resources and services.